{"data":{"norad_id":52693,"epoch":"2026-09-20T04:00:03.000096Z","epoch_age_seconds":95237,"freshness":"FRESH","line1":"1 52693U 22053AP  26263.16670139  .00083019  00000+0  31852-2 0  9990","line2":"2 52693  53.1589 348.7060 0001160  70.8974 359.2846 15.25779798  5786","mean_motion":15.25779798,"eccentricity":0.000116,"inclination_deg":53.1589,"raan_deg":348.706,"arg_perigee_deg":70.8974,"mean_anomaly_deg":359.2846,"bstar":0.0031852,"rev_number":578,"period_min":94.377969998525,"perigee_km":487.64832422731,"apogee_km":489.24137121598,"semimajor_km":6866.5818477216,"source":"CELESTRAK","updated_at":"2026-09-20T09:00:40.107132Z"}}